STARLINK-5506 (55651 NORAD) Tracking and Keplerian Element Data

This shows tracking and keplerian element data for the satellite.

Feedback or suggestion? Click here.




ElementValue
Catalog55651
NameSTARLINK-5506
Epoch Orbit626
Epoch Day85.17198951
Epoch Year2023
RAAN47.596
Inclination70.0014
Eccentricity0.0003722
Argument of Perigee270.1777
Mean Anonmoly89.8992
Mean Motion15.69944557
Decay Rate1.234E-05
L11 55651U 23021Z 23085.17198951 .00001234 00000+0 12023-4 0 9990
L22 55651 70.0014 47.5960 0003722 270.1777 89.8992 15.69944557 6266



Live tracking and technical data element details for STARLINK-5506 (NORAD 55651). STARLINK-5506 can be tracked NOW for your location showing map with azimuth and elevation plus other details from your city location.







IsCatalogInMostPopularTable: catalog: 55651, numindb: 2
Update: records affected: 1



GetName: 55651 STARLINK-5506

Hit Count: updated at: Tue, 28 Mar 2023 03:23:07 GMT